• In Deutschland
  • Länderverzeichnis
  • Für 7 Tage
  • Wassertemperatur
  • Satellitenkarten
  • Wetterkarte
  • Widgets
  • user-avatar
    Anmelden

    Stündliche Wetter Jewłach

    Heute, 19 Juni, Dienstag

    Zeit Temperatur Niederschläge Wind Luftdruck Luftfeuchtigkeit
    00:00 +24°C° 0,1 mm 3 m/S 756 mmHg 52%
    01:00 +24°C° 0 mm 3 m/S 756 mmHg 54%
    02:00 +24°C° 0 mm 2 m/S 756 mmHg 55%
    03:00 +23°C° 0 mm 2 m/S 755 mmHg 56%
    04:00 +24°C° 0 mm 1 m/S 756 mmHg 54%
    05:00 +24°C° 0 mm 1 m/S 756 mmHg 53%
    06:00 +25°C° 0 mm 1 m/S 756 mmHg 51%
    07:00 +26°C° 0 mm 1 m/S 756 mmHg 45%
    08:00 +27°C° 0 mm 2 m/S 757 mmHg 40%
    09:00 +29°C° 0 mm 2 m/S 757 mmHg 34%
    10:00 +29°C° 0 mm 2 m/S 757 mmHg 32%
    11:00 +30°C° 0 mm 2 m/S 757 mmHg 30%
    12:00 +31°C° 0 mm 2 m/S 757 mmHg 28%
    13:00 +32°C° 0 mm 2 m/S 757 mmHg 27%
    14:00 +34°C° 0 mm 2 m/S 757 mmHg 26%
    15:00 +34°C° 0 mm 3 m/S 756 mmHg 26%
    16:00 +34°C° 0 mm 2 m/S 757 mmHg 27%
    17:00 +34°C° 0 mm 2 m/S 757 mmHg 29%
    18:00 +32°C° 0 mm 2 m/S 757 mmHg 30%
    19:00 +31°C° 0 mm 3 m/S 757 mmHg 32%
    20:00 +29°C° 0 mm 3 m/S 758 mmHg 35%
    21:00 +28°C° 0 mm 3 m/S 758 mmHg 37%
    22:00 +27°C° 0 mm 3 m/S 758 mmHg 38%
    23:00 +27°C° 0 mm 2 m/S 759 mmHg 40%

    Morgen, 20 Juni, Mittwoch

    Zeit Temperatur Niederschläge Wind Luftdruck Luftfeuchtigkeit
    00:00 +26°C° 0 mm 2 m/S 759 mmHg 42%
    01:00 +26°C° 0 mm 2 m/S 759 mmHg 44%
    02:00 +25°C° 0 mm 1 m/S 759 mmHg 46%
    03:00 +24°C° 0 mm 1 m/S 759 mmHg 48%
    04:00 +25°C° 0 mm 1 m/S 759 mmHg 47%
    05:00 +25°C° 0 mm 1 m/S 759 mmHg 47%
    06:00 +26°C° 0 mm 1 m/S 760 mmHg 46%
    07:00 +27°C° 0 mm 1 m/S 759 mmHg 43%
    08:00 +28°C° 0 mm 1 m/S 759 mmHg 40%
    09:00 +30°C° 0 mm 2 m/S 759 mmHg 36%
    10:00 +31°C° 0 mm 2 m/S 759 mmHg 34%
    11:00 +32°C° 0 mm 2 m/S 759 mmHg 32%
    12:00 +34°C° 0 mm 2 m/S 758 mmHg 30%
    13:00 +34°C° 0 mm 2 m/S 758 mmHg 29%
    14:00 +35°C° 0 mm 2 m/S 758 mmHg 28%
    15:00 +36°C° 0 mm 3 m/S 758 mmHg 27%
    16:00 +35°C° 0 mm 2 m/S 758 mmHg 28%
    17:00 +35°C° 0 mm 2 m/S 758 mmHg 29%
    18:00 +35°C° 0 mm 2 m/S 758 mmHg 31%
    19:00 +32°C° 0 mm 2 m/S 759 mmHg 33%
    20:00 +30°C° 0 mm 3 m/S 759 mmHg 35%
    21:00 +29°C° 0 mm 4 m/S 760 mmHg 37%
    22:00 +28°C° 0 mm 3 m/S 760 mmHg 39%
    23:00 +27°C° 0 mm 3 m/S 760 mmHg 41%

    übermorgen, 21 Juni, Donnerstag

    Zeit Temperatur Niederschläge Wind Luftdruck Luftfeuchtigkeit
    00:00 +26°C° 0 mm 2 m/S 760 mmHg 43%
    01:00 +26°C° 0 mm 2 m/S 760 mmHg 44%
    02:00 +25°C° 0 mm 2 m/S 760 mmHg 45%
    03:00 +25°C° 0 mm 1 m/S 761 mmHg 47%
    04:00 +25°C° 0 mm 1 m/S 761 mmHg 46%
    05:00 +26°C° 0 mm 1 m/S 761 mmHg 45%
    06:00 +27°C° 0 mm 1 m/S 761 mmHg 44%
    07:00 +28°C° 0 mm 1 m/S 760 mmHg 40%
    08:00 +30°C° 0 mm 1 m/S 760 mmHg 36%
    09:00 +31°C° 0 mm 2 m/S 760 mmHg 32%
    10:00 +32°C° 0 mm 2 m/S 760 mmHg 30%
    11:00 +34°C° 0 mm 2 m/S 759 mmHg 29%
    12:00 +35°C° 0 mm 2 m/S 759 mmHg 27%
    13:00 +36°C° 0 mm 2 m/S 758 mmHg 26%
    14:00 +36°C° 0 mm 2 m/S 758 mmHg 25%
    15:00 +37°C° 0 mm 2 m/S 758 mmHg 24%
    16:00 +37°C° 0 mm 3 m/S 758 mmHg 25%
    17:00 +36°C° 0 mm 3 m/S 758 mmHg 26%
    18:00 +36°C° 0 mm 3 m/S 758 mmHg 27%
    19:00 +34°C° 0 mm 3 m/S 758 mmHg 29%
    20:00 +31°C° 0 mm 3 m/S 759 mmHg 32%
    21:00 +30°C° 0 mm 3 m/S 759 mmHg 34%
    22:00 +29°C° 0 mm 3 m/S 759 mmHg 35%
    23:00 +28°C° 0 mm 3 m/S 759 mmHg 36%

    22 Juni, Freitag

    Zeit Temperatur Niederschläge Wind Luftdruck Luftfeuchtigkeit
    00:00 +27°C° 0 mm 3 m/S 759 mmHg 37%
    01:00 +27°C° 0 mm 2 m/S 759 mmHg 38%
    02:00 +26°C° 0 mm 2 m/S 759 mmHg 38%
    03:00 +26°C° 0 mm 2 m/S 759 mmHg 39%
    04:00 +26°C° 0 mm 1 m/S 759 mmHg 38%
    05:00 +27°C° 0 mm 1 m/S 759 mmHg 38%
    06:00 +25°C° 0 mm 0 m/S 759 mmHg 37%
    07:00 +29°C° 0 mm 1 m/S 758 mmHg 33%
    08:00 +31°C° 0 mm 1 m/S 758 mmHg 30%
    09:00 +32°C° 0 mm 2 m/S 758 mmHg 26%
    10:00 +34°C° 0 mm 2 m/S 757 mmHg 24%
    11:00 +36°C° 0 mm 2 m/S 757 mmHg 23%
    12:00 +37°C° 0 mm 3 m/S 756 mmHg 21%
    13:00 +38°C° 0 mm 3 m/S 756 mmHg 20%
    14:00 +38°C° 0 mm 3 m/S 755 mmHg 19%
    15:00 +40°C° 0 mm 4 m/S 755 mmHg 19%
    16:00 +38°C° 0 mm 4 m/S 755 mmHg 20%
    17:00 +38°C° 0 mm 4 m/S 754 mmHg 21%
    18:00 +38°C° 0 mm 3 m/S 754 mmHg 22%
    19:00 +36°C° 0 mm 3 m/S 755 mmHg 25%
    20:00 +33°C° 0 mm 3 m/S 755 mmHg 27%
    21:00 +30°C° 0 mm 3 m/S 756 mmHg 30%
    22:00 +30°C° 0 mm 3 m/S 756 mmHg 31%
    23:00 +29°C° 0 mm 2 m/S 756 mmHg 32%

    23 Juni, Samstag

    Zeit Temperatur Niederschläge Wind Luftdruck Luftfeuchtigkeit
    00:00 +28°C° 0 mm 2 m/S 756 mmHg 33%
    01:00 +28°C° 0 mm 2 m/S 755 mmHg 34%
    02:00 +27°C° 0 mm 1 m/S 755 mmHg 34%
    03:00 +27°C° 0 mm 1 m/S 755 mmHg 35%
    04:00 +27°C° 0 mm 2 m/S 755 mmHg 34%
    05:00 +28°C° 0 mm 2 m/S 755 mmHg 34%
    06:00 +29°C° 0 mm 2 m/S 755 mmHg 34%
    07:00 +30°C° 0 mm 3 m/S 755 mmHg 30%
    08:00 +33°C° 0 mm 3 m/S 755 mmHg 27%
    09:00 +35°C° 0 mm 3 m/S 755 mmHg 24%
    10:00 +36°C° 0 mm 3 m/S 754 mmHg 23%
    11:00 +37°C° 0 mm 2 m/S 754 mmHg 21%
    12:00 +38°C° 0 mm 2 m/S 753 mmHg 20%
    13:00 +39°C° 0 mm 2 m/S 753 mmHg 19%
    14:00 +39°C° 0 mm 1 m/S 753 mmHg 19%
    15:00 +40°C° 0 mm 1 m/S 752 mmHg 18%
    16:00 +39°C° 0 mm 1 m/S 753 mmHg 19%
    17:00 +39°C° 0 mm 1 m/S 753 mmHg 20%
    18:00 +36°C° 0 mm 0 m/S 753 mmHg 21%
    19:00 +36°C° 0 mm 1 m/S 753 mmHg 23%
    20:00 +35°C° 0 mm 2 m/S 754 mmHg 25%
    21:00 +32°C° 0 mm 2 m/S 755 mmHg 27%
    22:00 +31°C° 0 mm 2 m/S 755 mmHg 28%
    23:00 +31°C° 0 mm 2 m/S 755 mmHg 29%

    24 Juni, Sonntag

    Zeit Temperatur Niederschläge Wind Luftdruck Luftfeuchtigkeit
    00:00 +30°C° 0 mm 2 m/S 755 mmHg 30%
    01:00 +30°C° 0 mm 3 m/S 755 mmHg 31%
    02:00 +29°C° 0 mm 3 m/S 755 mmHg 31%
    03:00 +29°C° 0 mm 3 m/S 755 mmHg 31%
    04:00 +29°C° 0 mm 4 m/S 756 mmHg 32%
    05:00 +29°C° 0 mm 4 m/S 756 mmHg 33%
    06:00 +30°C° 0 mm 4 m/S 756 mmHg 34%
    07:00 +33°C° 0 mm 4 m/S 756 mmHg 31%
    08:00 +34°C° 0 mm 4 m/S 756 mmHg 28%
    09:00 +36°C° 0 mm 5 m/S 756 mmHg 25%
    10:00 +37°C° 0 mm 4 m/S 756 mmHg 23%
    11:00 +39°C° 0 mm 3 m/S 756 mmHg 22%
    12:00 +40°C° 0 mm 3 m/S 755 mmHg 20%
    13:00 +40°C° 0 mm 2 m/S 755 mmHg 19%
    14:00 +41°C° 0 mm 2 m/S 755 mmHg 18%
    15:00 +41°C° 0 mm 1 m/S 755 mmHg 18%
    16:00 +41°C° 0 mm 1 m/S 755 mmHg 18%
    17:00 +41°C° 0 mm 2 m/S 755 mmHg 19%
    18:00 +41°C° 0 mm 2 m/S 755 mmHg 19%
    19:00 +38°C° 0 mm 3 m/S 756 mmHg 22%
    20:00 +36°C° 0 mm 3 m/S 756 mmHg 25%
    21:00 +34°C° 0 mm 3 m/S 757 mmHg 28%
    22:00 +33°C° 0 mm 3 m/S 757 mmHg 31%
    23:00 +31°C° 0 mm 3 m/S 757 mmHg 34%
    Mehr zeigen